Northeast Philadelphia, PA

6:09 AM EST on November 15, 2019 (GMT -0500)
Northeast Philadelphia

Weather History for KPNE - September, 2019

Change the Weather History Date:

Wednesday, September 11, 2019

  Actual Average Record
Temperature  
Mean Temperature 81 °F -  
Max Temperature 91 °F 77 °F 93 °F (2013)
Min Temperature 71 °F 59 °F 50 °F (2012)
Cooling Degree Days 16    
Growing Degree Days 31 (Base 50)    
Moisture  
Dew Point 67 °F    
Average Humidity 69    
Maximum Humidity 84    
Minimum Humidity 48    
Precipitation  
Precipitation 0.00 in - - ()
Sea Level Pressure  
Sea Level Pressure 30.18 in    
Wind  
Wind Speed 7 mph ()    
Max Wind Speed 13 mph    
Max Gust Speed 18 mph    
Visibility 10.0 miles    
Events      
Averages and records for this station are not official NWS values.
T = Trace of Precipitation, MM = Missing Value Source: Averaged Metar Reports

Daily Weather History Graph

Daily Weather History Graph

Search for Another Location

Airport or City:

Astronomy

Sep. 11, 2019 Rise Set
Actual Time 6:36 AM EDT 7:15 PM EDT
Civil Twilight 6:09 AM EDT 7:43 PM EDT
Nautical Twilight 5:37 AM EDT 8:15 PM EDT
Astronomical Twilight 5:03 AM EDT 8:48 PM EDT
Moon 6:26 PM EDT (9/11) 3:57 AM EDT (9/11)
Length of Visible Light 13h 33m
Length of Day
12h 38m
Waxing Gibbous, 94% of the Moon is Illuminated
Sep 11
Waxing Gibbous
Sep 14
Full
Sep 21
Last Quarter
Sep 28
New
Oct 5
First Quarter

Hourly Weather History & Observations

Time (EDT) Temp. Heat Index Dew Point Humidity Pressure Visibility Wind Dir Wind Speed Gust Speed Precip Events Conditions
12:45 AM 72.0 °F - 64.9 °F 78% 30.28 in 10.0 mi SSW 4.6 mph - N/A   Mostly Cloudy
12:54 AM 72.0 °F - 64.9 °F 78% 30.27 in 10.0 mi SSW 8.1 mph - N/A   Overcast
1:37 AM 72.0 °F - 66.0 °F 81% 30.28 in 10.0 mi SSW 8.1 mph - N/A   Mostly Cloudy
1:54 AM 72.0 °F - 66.0 °F 81% 30.27 in 10.0 mi SSW 6.9 mph - N/A   Mostly Cloudy
2:06 AM 72.0 °F - 66.0 °F 81% 30.27 in 10.0 mi South 4.6 mph - N/A   Mostly Cloudy
2:54 AM 72.0 °F - 66.0 °F 81% 30.26 in 10.0 mi SSW 5.8 mph - N/A   Overcast
3:54 AM 72.0 °F - 66.0 °F 81% 30.25 in 10.0 mi SW 6.9 mph - N/A   Mostly Cloudy
4:03 AM 72.0 °F - 66.0 °F 81% 30.25 in 10.0 mi SW 10.4 mph - N/A   Scattered Clouds
4:54 AM 72.0 °F - 66.0 °F 81% 30.24 in 10.0 mi SSW 12.7 mph - N/A   Clear
5:54 AM 71.1 °F - 66.0 °F 84% 30.23 in 10.0 mi SW 10.4 mph - N/A   Clear
6:16 AM 72.0 °F - 66.0 °F 81% 30.24 in 10.0 mi SW 8.1 mph 17.3 mph N/A   Mostly Cloudy
6:42 AM 72.0 °F - 66.0 °F 81% 30.24 in 10.0 mi SW 6.9 mph - N/A   Scattered Clouds
6:54 AM 71.1 °F - 66.0 °F 84% 30.24 in 10.0 mi SW 8.1 mph - N/A   Partly Cloudy
7:54 AM 73.0 °F - 66.0 °F 79% 30.24 in 10.0 mi SW 9.2 mph - N/A   Partly Cloudy
8:23 AM 73.9 °F - 66.9 °F 79% 30.25 in 10.0 mi WSW 11.5 mph 18.4 mph N/A   Mostly Cloudy
8:54 AM 75.0 °F - 66.0 °F 73% 30.24 in 10.0 mi SW 11.5 mph - N/A   Partly Cloudy
9:54 AM 78.1 °F - 66.9 °F 68% 30.22 in 10.0 mi WSW 6.9 mph - N/A   Scattered Clouds
10:17 AM 79.0 °F - 66.9 °F 66% 30.22 in 10.0 mi SW 11.5 mph - N/A   Mostly Cloudy
10:54 AM 80.1 °F 82.7 °F 68.0 °F 67% 30.20 in 10.0 mi SW 9.2 mph - N/A   Mostly Cloudy
11:06 AM 81.0 °F 83.8 °F 68.0 °F 65% 30.20 in 10.0 mi SW 10.4 mph - N/A   Scattered Clouds
11:54 AM 82.9 °F 85.8 °F 68.0 °F 60% 30.18 in 10.0 mi SSW 10.4 mph - N/A   Partly Cloudy
12:54 PM 84.9 °F 88.8 °F 69.1 °F 59% 30.15 in 10.0 mi WSW 10.4 mph - N/A   Clear
1:54 PM 87.1 °F 91.3 °F 69.1 °F 55% 30.12 in 10.0 mi WSW 6.9 mph - N/A   Clear
2:54 PM 90.0 °F 94.5 °F 69.1 °F 50% 30.09 in 10.0 mi SW 9.2 mph - N/A   Clear
3:54 PM 91.0 °F 96.6 °F 70.0 °F 50% 30.08 in 10.0 mi West 6.9 mph 16.1 mph N/A   Clear
4:54 PM 91.0 °F 95.6 °F 69.1 °F 48% 30.05 in 10.0 mi Variable 4.6 mph - N/A   Clear
5:54 PM 90.0 °F 95.4 °F 70.0 °F 52% 30.05 in 10.0 mi WSW 6.9 mph - N/A   Clear
6:54 PM 88.0 °F 92.1 °F 69.1 °F 53% 30.04 in 10.0 mi WSW 6.9 mph - N/A   Clear
7:54 PM 87.1 °F 91.3 °F 69.1 °F 55% 30.06 in 10.0 mi SW 6.9 mph - N/A   Clear
8:54 PM 86.0 °F 90.7 °F 70.0 °F 59% 30.07 in 10.0 mi SSW 4.6 mph - N/A   Clear
9:54 PM 84.9 °F 90.1 °F 71.1 °F 63% 30.07 in 10.0 mi SW 9.2 mph - N/A   Partly Cloudy
10:54 PM 82.0 °F 84.9 °F 68.0 °F 62% 30.06 in 10.0 mi WSW 4.6 mph - N/A   Clear
11:54 PM 81.0 °F 84.1 °F 69.1 °F 67% 30.06 in 10.0 mi WNW 6.9 mph - N/A   Mostly Cloudy